When you browse on this site, cookies collect data to enhance your experience and personalize the content and advertising you see.
Visit our Privacy Policy to learn more. By continuing to use the site, you agree to this use of cookies and data.
  • Em Portugal
  • Lista de países
  • Para 7 dias
  • Temperatura da água
  • Mapas de satélite
  • Mapa do tempo
  • Widgets de tempo
  • user-avatar
    Iniciar Sessão

    Previsão horária em Malesowizna

    Hoje, 14 Dezembro, Sexta-feira

    Tempo Temperatura Precipitação Vento Pressão Humidade
    00:00 -4°C° 0 mm 3 m/s 747 mmHg 85%
    01:00 -4°C° 0 mm 3 m/s 748 mmHg 85%
    02:00 -4°C° 0 mm 3 m/s 748 mmHg 85%
    03:00 -4°C° 0 mm 3 m/s 748 mmHg 86%
    04:00 -4°C° 0 mm 3 m/s 748 mmHg 86%
    05:00 -4°C° 0 mm 3 m/s 748 mmHg 86%
    06:00 -4°C° 0 mm 3 m/s 748 mmHg 87%
    07:00 -4°C° 0 mm 3 m/s 748 mmHg 87%
    08:00 -4°C° 0 mm 3 m/s 749 mmHg 87%
    09:00 -4°C° 0 mm 3 m/s 749 mmHg 87%
    10:00 -4°C° 0 mm 3 m/s 749 mmHg 86%
    11:00 -2°C° 0 mm 3 m/s 749 mmHg 85%
    12:00 -2°C° 0 mm 3 m/s 750 mmHg 84%
    13:00 -2°C° 0 mm 3 m/s 750 mmHg 83%
    14:00 -2°C° 0 mm 3 m/s 750 mmHg 82%
    15:00 -2°C° 0 mm 3 m/s 750 mmHg 83%
    16:00 -2°C° 0 mm 3 m/s 750 mmHg 85%
    17:00 -2°C° 0 mm 2 m/s 751 mmHg 86%
    18:00 -3°C° 0 mm 2 m/s 751 mmHg 87%
    19:00 -3°C° 0 mm 2 m/s 751 mmHg 88%
    20:00 -3°C° 0 mm 2 m/s 751 mmHg 89%
    21:00 -3°C° 0 mm 2 m/s 751 mmHg 89%
    22:00 -3°C° 0 mm 2 m/s 752 mmHg 90%
    23:00 -3°C° 0 mm 2 m/s 752 mmHg 90%

    Amanhã, 15 Dezembro, Sábado

    Tempo Temperatura Precipitação Vento Pressão Humidade
    00:00 -3°C° 0 mm 2 m/s 752 mmHg 90%
    01:00 -3°C° 0 mm 2 m/s 752 mmHg 90%
    02:00 -3°C° 0 mm 2 m/s 752 mmHg 91%
    03:00 -3°C° 0 mm 2 m/s 752 mmHg 91%
    04:00 -3°C° 0 mm 2 m/s 752 mmHg 91%
    05:00 -3°C° 0 mm 2 m/s 752 mmHg 92%
    06:00 -3°C° 0 mm 2 m/s 753 mmHg 91%
    07:00 -4°C° 0 mm 3 m/s 753 mmHg 90%
    08:00 -4°C° 0 mm 3 m/s 753 mmHg 89%
    09:00 -4°C° 0 mm 3 m/s 753 mmHg 87%
    10:00 -4°C° 0 mm 3 m/s 753 mmHg 85%
    11:00 -4°C° 0 mm 3 m/s 754 mmHg 83%
    12:00 -4°C° 0 mm 3 m/s 753 mmHg 82%
    13:00 -2°C° 0 mm 3 m/s 753 mmHg 82%
    14:00 -2°C° 0 mm 3 m/s 753 mmHg 81%
    15:00 -2°C° 0 mm 3 m/s 753 mmHg 82%
    16:00 -4°C° 0 mm 3 m/s 753 mmHg 84%
    17:00 -4°C° 0 mm 3 m/s 753 mmHg 85%
    18:00 -4°C° 0 mm 3 m/s 753 mmHg 86%
    19:00 -4°C° 0 mm 3 m/s 753 mmHg 87%
    20:00 -4°C° 0 mm 3 m/s 753 mmHg 87%
    21:00 -4°C° 0 mm 3 m/s 753 mmHg 87%
    22:00 -4°C° 0 mm 3 m/s 753 mmHg 86%
    23:00 -4°C° 0 mm 3 m/s 753 mmHg 86%

    Depois de amanhã, 16 Dezembro, Domingo

    Tempo Temperatura Precipitação Vento Pressão Humidade
    00:00 -4°C° 0 mm 3 m/s 753 mmHg 86%
    01:00 -4°C° 0 mm 3 m/s 753 mmHg 86%
    02:00 -4°C° 0 mm 4 m/s 753 mmHg 85%
    03:00 -4°C° 0 mm 4 m/s 752 mmHg 85%
    04:00 -4°C° 0 mm 4 m/s 752 mmHg 84%
    05:00 -4°C° 0 mm 4 m/s 752 mmHg 83%
    06:00 -4°C° 0 mm 4 m/s 751 mmHg 82%
    07:00 -4°C° 0 mm 4 m/s 751 mmHg 82%
    08:00 -5°C° 0 mm 4 m/s 751 mmHg 81%
    09:00 -6°C° 0 mm 5 m/s 751 mmHg 80%
    10:00 -6°C° 0 mm 5 m/s 751 mmHg 79%
    11:00 -6°C° 0 mm 5 m/s 750 mmHg 78%
    12:00 -6°C° 0.1 mm 5 m/s 750 mmHg 78%
    13:00 -6°C° 0.1 mm 5 m/s 750 mmHg 78%
    14:00 -6°C° 0.1 mm 6 m/s 749 mmHg 78%
    15:00 -6°C° 0.3 mm 6 m/s 749 mmHg 81%
    16:00 -6°C° 0.3 mm 6 m/s 749 mmHg 83%
    17:00 -6°C° 0.3 mm 6 m/s 748 mmHg 85%
    18:00 -6°C° 0.4 mm 6 m/s 748 mmHg 86%
    19:00 -6°C° 0.4 mm 6 m/s 748 mmHg 88%
    20:00 -6°C° 0.4 mm 6 m/s 748 mmHg 89%
    21:00 -6°C° 0.7 mm 6 m/s 748 mmHg 90%
    22:00 -6°C° 0.7 mm 5 m/s 747 mmHg 90%
    23:00 -6°C° 0.7 mm 5 m/s 747 mmHg 91%

    17 Dezembro, Segunda-feira

    Tempo Temperatura Precipitação Vento Pressão Humidade
    00:00 -6°C° 0.4 mm 5 m/s 747 mmHg 91%
    01:00 -6°C° 0.4 mm 5 m/s 747 mmHg 90%
    02:00 -6°C° 0.4 mm 5 m/s 747 mmHg 90%
    03:00 -6°C° 0.2 mm 5 m/s 747 mmHg 90%
    04:00 -7°C° 0.2 mm 4 m/s 747 mmHg 90%
    05:00 -7°C° 0.2 mm 4 m/s 746 mmHg 91%
    06:00 -7°C° 0.1 mm 4 m/s 746 mmHg 91%
    07:00 -7°C° 0.1 mm 4 m/s 746 mmHg 91%
    08:00 -7°C° 0.1 mm 4 m/s 746 mmHg 91%
    09:00 -5°C° 0.1 mm 4 m/s 746 mmHg 91%
    10:00 -5°C° 0.1 mm 4 m/s 747 mmHg 91%
    11:00 -5°C° 0.1 mm 4 m/s 747 mmHg 91%
    12:00 -5°C° 0 mm 3 m/s 747 mmHg 91%
    13:00 -4°C° 0 mm 3 m/s 747 mmHg 90%
    14:00 -4°C° 0 mm 3 m/s 747 mmHg 90%
    15:00 -4°C° 0 mm 3 m/s 747 mmHg 91%
    16:00 -4°C° 0 mm 2 m/s 747 mmHg 92%
    17:00 -4°C° 0 mm 2 m/s 747 mmHg 93%
    18:00 -4°C° 0 mm 2 m/s 747 mmHg 94%
    19:00 -4°C° 0 mm 2 m/s 747 mmHg 94%
    20:00 -4°C° 0 mm 2 m/s 747 mmHg 94%
    21:00 -4°C° 0 mm 2 m/s 747 mmHg 94%
    22:00 -4°C° 0 mm 2 m/s 748 mmHg 95%
    23:00 -4°C° 0 mm 2 m/s 748 mmHg 95%

    18 Dezembro, Terça-feira

    Tempo Temperatura Precipitação Vento Pressão Humidade
    00:00 -4°C° 0 mm 2 m/s 748 mmHg 95%
    01:00 -2°C° 0 mm 1 m/s 748 mmHg 95%
    02:00 -2°C° 0 mm 1 m/s 748 mmHg 95%
    03:00 -2°C° 0 mm 1 m/s 748 mmHg 95%
    04:00 -2°C° 0 mm 1 m/s 748 mmHg 95%
    05:00 -2°C° 0 mm 1 m/s 748 mmHg 95%
    06:00 -2°C° 0 mm 1 m/s 748 mmHg 94%
    07:00 -3°C° 0 mm 0 m/s 749 mmHg 94%
    08:00 -3°C° 0 mm 0 m/s 749 mmHg 93%
    09:00 -2°C° 0 mm 0 m/s 749 mmHg 93%
    10:00 -2°C° 0 mm 0 m/s 749 mmHg 92%
    11:00 -2°C° 0 mm 0 m/s 750 mmHg 91%
    12:00 -2°C° 0 mm 0 m/s 750 mmHg 90%
    13:00 -2°C° 0 mm 0 m/s 750 mmHg 90%
    14:00 -1°C° 0 mm 0 m/s 750 mmHg 89%
    15:00 -2°C° 0 mm 0 m/s 750 mmHg 90%
    16:00 -2°C° 0 mm 0 m/s 750 mmHg 91%
    17:00 -2°C° 0 mm 0 m/s 750 mmHg 92%
    18:00 -2°C° 0 mm 1 m/s 750 mmHg 93%
    19:00 -2°C° 0 mm 1 m/s 750 mmHg 93%
    20:00 -2°C° 0 mm 1 m/s 750 mmHg 94%
    21:00 -2°C° 0 mm 1 m/s 750 mmHg 94%
    22:00 -2°C° 0 mm 1 m/s 750 mmHg 94%
    23:00 -2°C° 0 mm 1 m/s 750 mmHg 94%

    19 Dezembro, Quarta-feira

    Tempo Temperatura Precipitação Vento Pressão Humidade
    00:00 -2°C° 0 mm 1 m/s 750 mmHg 95%
    01:00 -3°C° 0 mm 1 m/s 750 mmHg 95%
    02:00 -5°C° 0 mm 2 m/s 750 mmHg 95%
    03:00 -5°C° 0 mm 2 m/s 749 mmHg 95%
    04:00 -5°C° 0 mm 2 m/s 749 mmHg 95%
    05:00 -5°C° 0 mm 2 m/s 749 mmHg 95%
    06:00 -5°C° 0 mm 2 m/s 749 mmHg 95%
    07:00 -6°C° 0 mm 3 m/s 749 mmHg 95%
    08:00 -6°C° 0 mm 3 m/s 749 mmHg 95%
    09:00 -6°C° 0 mm 3 m/s 749 mmHg 93%
    10:00 -7°C° 0 mm 4 m/s 749 mmHg 92%
    11:00 -5°C° 0 mm 4 m/s 749 mmHg 90%
    12:00 -5°C° 0 mm 4 m/s 748 mmHg 89%
    13:00 -5°C° 0 mm 4 m/s 748 mmHg 88%
    14:00 -6°C° 0 mm 5 m/s 748 mmHg 87%
    15:00 -5°C° 0 mm 4 m/s 747 mmHg 87%
    16:00 -5°C° 0 mm 4 m/s 747 mmHg 87%
    17:00 -5°C° 0 mm 4 m/s 747 mmHg 87%
    18:00 -6°C° 0 mm 5 m/s 747 mmHg 88%
    19:00 -6°C° 0 mm 5 m/s 747 mmHg 89%
    20:00 -6°C° 0 mm 5 m/s 746 mmHg 90%
    21:00 -6°C° 0 mm 5 m/s 746 mmHg 90%
    22:00 -6°C° 0 mm 5 m/s 746 mmHg 89%
    23:00 -6°C° 0 mm 6 m/s 746 mmHg 89%
    Mostrar mais